Weather History for KSAT - May, 2011

Change the Weather History Date:

Monday, May 9, 2011

  Actual Average Record
Temperature  
Mean Temperature 85 °F 75 °F  
Max Temperature 96 °F 85 °F 97 °F (1967)
Min Temperature 73 °F 65 °F 43 °F (1984)
Degree Days  
Heating Degree Days 0 0  
Month to date heating degree days 13 0  
Since 1 July heating degree days 1368 1494  
Cooling Degree Days 20 10  
Month to date cooling degree days 79 84  
Year to date cooling degree days 612 343  
Growing Degree Days 34 (Base 50)    
Moisture  
Dew Point 68 °F    
Average Humidity 65    
Maximum Humidity 93    
Minimum Humidity 36    
Precipitation  
Precipitation 0.00 in 0.12 in 5.84 in (1935)
Month to date precipitation T 1.03  
Year to date precipitation 3.19 8.99  
Snow  
Snow 0.00 in - - ()
Month to date snowfall 0.0  
Since 1 July snowfall 0.4  
Snow Depth 0.00 in    
Sea Level Pressure  
Sea Level Pressure 29.72 in    
Wind  
Wind Speed 16 mph (SSE)    
Max Wind Speed 29 mph    
Max Gust Speed 43 mph    
Visibility 10 miles    
Events      
T = Trace of Precipitation, MM = Missing Value Source: NWS Daily Summary

Daily Weather History Graph

Daily Weather History Graph

Search for Another Location

Airport or City:

Trip Planner

Search our weather history database for the weather conditions in past years. The results will help you decide how hot, cold, wet, or windy it might be!

Date:

Astronomy

May. 09, 2011 Rise Set
Actual Time 6:45 AM CDT 8:15 PM CDT
Civil Twilight 6:19 AM CDT 8:41 PM CDT
Nautical Twilight 5:49 AM CDT 9:11 PM CDT
Astronomical Twilight 5:17 AM CDT 9:44 PM CDT
Moon 12:12 PM CDT (5/9) 1:06 AM CDT (5/9)
Length of Visible Light 14h 21m
Length of Day
13h 30m
Waxing Crescent, 38% of the Moon is Illuminated
May 9
Waxing Crescent
May 10
First Quarter
May 17
Full
May 24
Last Quarter
Jun 1
New

Hourly Weather History & Observations

Time (CDT) Temp. Heat Index Dew Point Humidity Pressure Visibility Wind Dir Wind Speed Gust Speed Precip Events Conditions
12:53 AM 75.0 °F - 70.0 °F 84% 29.75 in 10.0 mi SE 8.1 mph - N/A   Mostly Cloudy
1:03 AM 75.2 °F - 69.8 °F 83% 29.79 in 8.0 mi SE 10.4 mph - N/A   Mostly Cloudy
1:53 AM 73.9 °F - 71.1 °F 91% 29.71 in 8.0 mi SE 13.8 mph - N/A   Overcast
2:03 AM 73.4 °F - 71.6 °F 94% 29.77 in 8.0 mi SE 12.7 mph - N/A   Overcast
2:53 AM 75.0 °F - 71.1 °F 87% 29.71 in 8.0 mi SSE 10.4 mph - N/A   Overcast
3:29 AM 73.4 °F - 69.8 °F 88% 29.77 in 8.0 mi SSE 19.6 mph 26.5 mph N/A   Overcast
3:53 AM 73.9 °F - 69.1 °F 85% 29.71 in 9.0 mi South 17.3 mph 23.0 mph N/A   Overcast
4:53 AM 73.0 °F - 69.1 °F 87% 29.71 in 10.0 mi SSE 11.5 mph - N/A   Mostly Cloudy
5:53 AM 73.0 °F - 69.1 °F 87% 29.73 in 10.0 mi SSE 13.8 mph - N/A   Mostly Cloudy
6:53 AM 73.0 °F - 69.1 °F 87% 29.73 in 8.0 mi SSE 9.2 mph - N/A   Mostly Cloudy
7:53 AM 73.9 °F - 69.1 °F 85% 29.75 in 8.0 mi SSE 12.7 mph - N/A   Overcast
8:33 AM 75.2 °F - 69.8 °F 83% 29.82 in 10.0 mi SSE 13.8 mph - N/A   Mostly Cloudy
8:53 AM 75.9 °F - 69.1 °F 79% 29.77 in 10.0 mi SSE 13.8 mph - N/A   Mostly Cloudy
9:42 AM 78.8 °F - 69.8 °F 74% 29.82 in 10.0 mi South 15.0 mph - N/A   Mostly Cloudy
9:53 AM 80.1 °F 82.7 °F 68.0 °F 67% 29.77 in 10.0 mi South 15.0 mph 21.9 mph N/A   Mostly Cloudy
10:53 AM 82.9 °F 85.8 °F 68.0 °F 60% 29.75 in 10.0 mi South 16.1 mph - N/A   Mostly Cloudy
11:53 AM 87.1 °F 89.9 °F 66.9 °F 51% 29.74 in 10.0 mi SSE 15.0 mph - N/A   Mostly Cloudy
12:53 PM 91.9 °F 94.1 °F 64.9 °F 41% 29.71 in 10.0 mi SSE 19.6 mph 32.2 mph N/A   Mostly Cloudy
1:53 PM 93.9 °F 97.0 °F 66.0 °F 40% 29.68 in 10.0 mi SSE 19.6 mph 27.6 mph N/A   Mostly Cloudy
2:53 PM 95.0 °F 97.4 °F 64.9 °F 37% 29.67 in 10.0 mi SE 24.2 mph 29.9 mph N/A   Mostly Cloudy
3:53 PM 93.9 °F 97.5 °F 66.9 °F 41% 29.64 in 10.0 mi SE 20.7 mph 29.9 mph N/A   Mostly Cloudy
4:53 PM 90.0 °F 93.6 °F 68.0 °F 48% 29.64 in 10.0 mi SE 20.7 mph - N/A   Mostly Cloudy
5:53 PM 89.1 °F 92.9 °F 68.0 °F 50% 29.64 in 10.0 mi SE 18.4 mph 27.6 mph N/A   Mostly Cloudy
6:53 PM 87.1 °F 88.3 °F 64.0 °F 46% 29.65 in 10.0 mi SE 21.9 mph - N/A   Overcast
7:53 PM 84.9 °F 84.2 °F 57.9 °F 40% 29.64 in 10.0 mi SSE 15.0 mph - N/A   Mostly Cloudy
8:53 PM 82.9 °F 83.2 °F 60.1 °F 46% 29.66 in 10.0 mi SE 16.1 mph - N/A   Mostly Cloudy
9:53 PM 80.1 °F 81.7 °F 64.0 °F 58% 29.69 in 10.0 mi SE 15.0 mph 23.0 mph N/A   Mostly Cloudy
10:53 PM 77.0 °F - 64.9 °F 66% 29.73 in 10.0 mi ESE 10.4 mph - N/A   Mostly Cloudy
11:53 PM 73.9 °F - 68.0 °F 82% 29.72 in 10.0 mi SE 13.8 mph - N/A   Mostly Cloudy